Home > Weather > Winnipeg > Past weeks

Flag for Canada Weather for the Past 2 Weeks in Winnipeg, Manitoba, Canada

Now
64 °F

Mild.


Feels Like: 64 °F
Forecast: 38 / 65 °F
Wind: 1 mph from Northeast

Location: Winnipeg The Forks Man

Current Time: May 1, 2016 at 1:23:46 PM

Latest Report: May 1, 2016 at 1:00 PM


Visibility: N/A

Pressure: 30.25 "Hg

Humidity: 27%

Dew Point: 29 °F

Location of WinnipegLocation

Historic Weather in Winnipeg — Graph

°F

Winnipeg Temperature Yesterday

Maximum temperature yesterday: 61 °F (at 6:00 PM)
Minimum temperature yesterday: 38 °F (at 6:00 AM)
Average temperature yesterday: 51 °F

High & Low Weather Summary for the Past Weeks

 TemperatureHumidityPressure
High69 °F (Apr 20, 6:00 PM)100% (Apr 17, 6:00 AM)30.55 "Hg (Apr 17, 6:00 AM)
Low29 °F (Apr 22, 6:00 AM)17% (Apr 28, 2:00 PM)29.83 "Hg (Apr 20, 8:00 PM)
Average46 °F51%30.19 "Hg
* Reported Apr 16 12:00 Noon — May 1 12:00 Noon, Winnipeg, Weather by CustomWeather, © 2016

Note: Actual official high and low records may vary slightly from our data, if they occured in-between our weather recording intervals... More about our weather records

Advertising

Winnipeg Weather History for the Previous 24 Hours

Scroll right to see more
 ConditionsComfort  
Time TempWeatherWind HumidityBarometerVisibility
12:00 PM
Sun, May 1
62 °FMild.3 mph27%30.27 "HgN/A
11:00 AM60 °FRefreshingly cool.3 mph27%30.30 "HgN/A
10:00 AM55 °FRefreshingly cool.3 mph32%30.32 "HgN/A
9:00 AM51 °FCool.2 mph44%30.32 "HgN/A
8:00 AM49 °FCool.No wind47%30.33 "HgN/A
7:00 AM41 °FQuite cool.1 mph67%30.33 "HgN/A
6:00 AM40 °FQuite cool.No wind67%30.32 "HgN/A
5:00 AM40 °FQuite cool.1 mph65%30.32 "HgN/A
4:00 AM42 °FQuite cool.2 mph63%30.32 "HgN/A
3:00 AM40 °FQuite cool.2 mph68%30.32 "HgN/A
2:00 AM44 °FQuite cool.2 mph65%30.33 "HgN/A
1:00 AM47 °FCool.5 mph51%30.32 "HgN/A
12:00 AM49 °FCool.2 mph48%30.33 "HgN/A
11:00 PM
Sat, Apr 30
49 °FCool.2 mph50%30.32 "HgN/A
10:00 PM49 °FCool.5 mph47%30.32 "HgN/A
9:00 PM55 °FCool.5 mph36%30.30 "HgN/A
8:00 PM58 °FRefreshingly cool.5 mph30%30.29 "HgN/A
7:00 PM60 °FRefreshingly cool.8 mph26%30.29 "HgN/A
6:00 PM61 °FRefreshingly cool.9 mph27%30.28 "HgN/A
5:00 PM61 °FRefreshingly cool.10 mph27%30.29 "HgN/A
4:00 PM61 °FRefreshingly cool.9 mph29%30.30 "HgN/A
3:00 PM60 °FRefreshingly cool.8 mph30%30.31 "HgN/A
2:00 PM60 °FRefreshingly cool.8 mph31%30.32 "HgN/A
1:00 PM58 °FRefreshingly cool.7 mph30%30.34 "HgN/A
Weather by CustomWeather, © 2016

See weather overviewHow to use our weather pages